Hourly Weather Alihe

Today, 26 November, Thursday

Time Temperature Precipitation Wind Pressure Humidity
00:00 -14°C° 0 mm 3 mps 726 mmHg 73%
01:00 -15°C° 0 mm 4 mps 726 mmHg 69%
02:00 -16°C° 0 mm 4 mps 726 mmHg 65%
03:00 -15°C° 0 mm 3 mps 726 mmHg 64%
04:00 -15°C° 0 mm 3 mps 726 mmHg 63%
05:00 -15°C° 0 mm 3 mps 725 mmHg 62%
06:00 -14°C° 0 mm 2 mps 725 mmHg 62%
07:00 -15°C° 0 mm 2 mps 726 mmHg 61%
08:00 -15°C° 0 mm 2 mps 726 mmHg 65%
09:00 -14°C° 0 mm 3 mps 726 mmHg 58%
10:00 -14°C° 0 mm 4 mps 726 mmHg 51%
11:00 -12°C° 0 mm 5 mps 725 mmHg 44%
12:00 -11°C° 0 mm 4 mps 725 mmHg 44%
13:00 -11°C° 0 mm 4 mps 725 mmHg 44%
14:00 -10°C° 0 mm 4 mps 725 mmHg 45%
15:00 -10°C° 0 mm 3 mps 725 mmHg 51%
16:00 -13°C° 0 mm 3 mps 726 mmHg 56%
17:00 -13°C° 0 mm 2 mps 726 mmHg 62%
18:00 -13°C° 0 mm 2 mps 726 mmHg 63%
19:00 -14°C° 0 mm 2 mps 726 mmHg 65%
20:00 -12°C° 0 mm 1 mps 726 mmHg 68%
21:00 -13°C° 0 mm 1 mps 726 mmHg 69%
22:00 -13°C° 0 mm 1 mps 726 mmHg 70%
23:00 -13°C° 0 mm 1 mps 726 mmHg 71%

Tomorrow, 27 November, Friday

Time Temperature Precipitation Wind Pressure Humidity
00:00 -13°C° 0 mm 1 mps 726 mmHg 71%
01:00 -14°C° 0 mm 1 mps 726 mmHg 71%
02:00 -14°C° 0 mm 1 mps 726 mmHg 72%
03:00 -14°C° 0 mm 1 mps 726 mmHg 72%
04:00 -14°C° 0 mm 1 mps 726 mmHg 72%
05:00 -16°C° 0 mm 2 mps 726 mmHg 72%
06:00 -16°C° 0 mm 2 mps 726 mmHg 72%
07:00 -16°C° 0 mm 2 mps 725 mmHg 71%
08:00 -16°C° 0 mm 2 mps 725 mmHg 71%
09:00 -14°C° 0 mm 2 mps 725 mmHg 64%
10:00 -13°C° 0 mm 3 mps 725 mmHg 57%
11:00 -12°C° 0 mm 4 mps 725 mmHg 49%
12:00 -11°C° 0 mm 4 mps 725 mmHg 49%
13:00 -11°C° 0 mm 4 mps 725 mmHg 49%
14:00 -10°C° 0 mm 4 mps 724 mmHg 49%
15:00 -10°C° 0 mm 3 mps 725 mmHg 55%
16:00 -12°C° 0 mm 3 mps 725 mmHg 60%
17:00 -13°C° 0 mm 2 mps 725 mmHg 66%
18:00 -13°C° 0 mm 2 mps 725 mmHg 68%
19:00 -14°C° 0 mm 2 mps 725 mmHg 70%
20:00 -14°C° 0 mm 2 mps 725 mmHg 72%
21:00 -14°C° 0 mm 2 mps 725 mmHg 73%
22:00 -15°C° 0 mm 2 mps 725 mmHg 73%
23:00 -15°C° 0 mm 2 mps 725 mmHg 74%

Day after tomorrow, 28 November, Saturday

Time Temperature Precipitation Wind Pressure Humidity
00:00 -15°C° 0 mm 2 mps 725 mmHg 74%
01:00 -15°C° 0 mm 2 mps 725 mmHg 73%
02:00 -15°C° 0 mm 2 mps 725 mmHg 73%
03:00 -16°C° 0 mm 2 mps 725 mmHg 73%
04:00 -16°C° 0 mm 2 mps 725 mmHg 72%
05:00 -16°C° 0 mm 2 mps 725 mmHg 72%
06:00 -16°C° 0 mm 2 mps 725 mmHg 72%
07:00 -16°C° 0 mm 2 mps 724 mmHg 71%
08:00 -16°C° 0 mm 2 mps 724 mmHg 71%
09:00 -14°C° 0 mm 2 mps 724 mmHg 64%
10:00 -12°C° 0 mm 2 mps 724 mmHg 56%
11:00 -12°C° 0 mm 3 mps 724 mmHg 49%
12:00 -10°C° 0 mm 3 mps 723 mmHg 49%
13:00 -10°C° 0 mm 3 mps 723 mmHg 50%
14:00 -11°C° 0 mm 4 mps 723 mmHg 50%
15:00 -12°C° 0 mm 3 mps 723 mmHg 56%
16:00 -13°C° 0 mm 3 mps 723 mmHg 61%
17:00 -13°C° 0 mm 2 mps 723 mmHg 67%
18:00 -13°C° 0 mm 2 mps 723 mmHg 69%
19:00 -14°C° 0 mm 2 mps 723 mmHg 71%
20:00 -15°C° 0 mm 2 mps 723 mmHg 73%
21:00 -15°C° 0 mm 2 mps 723 mmHg 74%
22:00 -15°C° 0 mm 2 mps 723 mmHg 75%
23:00 -15°C° 0 mm 2 mps 723 mmHg 76%

29 November, Sunday

Time Temperature Precipitation Wind Pressure Humidity
00:00 -14°C° 0 mm 1 mps 723 mmHg 76%
01:00 -14°C° 0 mm 1 mps 723 mmHg 77%
02:00 -14°C° 0 mm 1 mps 723 mmHg 78%
03:00 -15°C° 0 mm 1 mps 723 mmHg 78%
04:00 -15°C° 0 mm 1 mps 723 mmHg 78%
05:00 -15°C° 0 mm 1 mps 723 mmHg 78%
06:00 -15°C° 0 mm 1 mps 723 mmHg 78%
07:00 -15°C° 0 mm 1 mps 723 mmHg 78%
08:00 -15°C° 0 mm 1 mps 723 mmHg 77%
09:00 -16°C° 0 mm 2 mps 723 mmHg 70%
10:00 -14°C° 0 mm 2 mps 723 mmHg 62%
11:00 -14°C° 0 mm 3 mps 723 mmHg 54%
12:00 -14°C° 0 mm 3 mps 722 mmHg 54%
13:00 -13°C° 0 mm 3 mps 722 mmHg 53%
14:00 -14°C° 0 mm 4 mps 722 mmHg 53%
15:00 -14°C° 0 mm 3 mps 722 mmHg 58%
16:00 -15°C° 0 mm 3 mps 723 mmHg 64%
17:00 -15°C° 0 mm 2 mps 723 mmHg 70%
18:00 -15°C° 0 mm 2 mps 723 mmHg 72%
19:00 -16°C° 0 mm 2 mps 723 mmHg 73%
20:00 -16°C° 0 mm 2 mps 723 mmHg 75%
21:00 -16°C° 0 mm 2 mps 723 mmHg 74%
22:00 -16°C° 0 mm 2 mps 723 mmHg 72%
23:00 -16°C° 0 mm 2 mps 723 mmHg 71%

30 November, Monday

Time Temperature Precipitation Wind Pressure Humidity
00:00 -15°C° 0 mm 2 mps 723 mmHg 71%
01:00 -15°C° 0 mm 2 mps 723 mmHg 70%
02:00 -15°C° 0 mm 2 mps 723 mmHg 70%
03:00 -15°C° 0 mm 2 mps 723 mmHg 70%
04:00 -15°C° 0 mm 2 mps 723 mmHg 70%
05:00 -15°C° 0 mm 2 mps 723 mmHg 70%
06:00 -15°C° 0 mm 2 mps 723 mmHg 70%
07:00 -16°C° 0 mm 3 mps 723 mmHg 71%
08:00 -17°C° 0 mm 3 mps 724 mmHg 71%
09:00 -16°C° 0 mm 3 mps 723 mmHg 65%
10:00 -16°C° 0 mm 4 mps 723 mmHg 59%
11:00 -15°C° 0 mm 4 mps 723 mmHg 53%
12:00 -14°C° 0 mm 4 mps 723 mmHg 53%
13:00 -14°C° 0 mm 4 mps 723 mmHg 52%
14:00 -14°C° 0 mm 4 mps 723 mmHg 51%
15:00 -14°C° 0 mm 3 mps 724 mmHg 56%
16:00 -15°C° 0 mm 3 mps 724 mmHg 62%
17:00 -15°C° 0 mm 2 mps 724 mmHg 67%
18:00 -15°C° 0 mm 2 mps 724 mmHg 69%
19:00 -15°C° 0 mm 2 mps 724 mmHg 71%
20:00 -16°C° 0 mm 2 mps 725 mmHg 73%
21:00 -16°C° 0 mm 2 mps 725 mmHg 74%
22:00 -14°C° 0 mm 1 mps 725 mmHg 75%
23:00 -15°C° 0 mm 1 mps 725 mmHg 76%

1 December, Tuesday

Time Temperature Precipitation Wind Pressure Humidity
00:00 -15°C° 0 mm 1 mps 725 mmHg 76%
01:00 -15°C° 0 mm 1 mps 725 mmHg 77%
02:00 -15°C° 0 mm 1 mps 725 mmHg 78%
03:00 -15°C° 0 mm 1 mps 725 mmHg 78%
04:00 -16°C° 0 mm 1 mps 725 mmHg 79%
05:00 -16°C° 0 mm 1 mps 725 mmHg 79%
06:00 -16°C° 0 mm 1 mps 725 mmHg 79%
07:00 -16°C° 0 mm 1 mps 725 mmHg 78%
08:00 -16°C° 0 mm 1 mps 726 mmHg 78%
09:00 -14°C° 0 mm 1 mps 725 mmHg 70%
10:00 -13°C° 0 mm 1 mps 725 mmHg 62%
11:00 -11°C° 0 mm 1 mps 725 mmHg 54%
12:00 -11°C° 0 mm 1 mps 725 mmHg 53%
13:00 -10°C° 0 mm 1 mps 725 mmHg 52%
14:00 -10°C° 0 mm 1 mps 725 mmHg 51%
15:00 -11°C° 0 mm 1 mps 725 mmHg 57%
16:00 -12°C° 0 mm 1 mps 725 mmHg 63%
17:00 -14°C° 0 mm 1 mps 725 mmHg 69%
18:00 -14°C° 0 mm 1 mps 725 mmHg 71%
19:00 -14°C° 0 mm 1 mps 725 mmHg 73%
20:00 -15°C° 0 mm 1 mps 725 mmHg 74%
21:00 -15°C° 0 mm 1 mps 725 mmHg 76%
22:00 -15°C° 0 mm 1 mps 725 mmHg 78%
23:00 -16°C° 0 mm 1 mps 724 mmHg 79%
Show more